OPS 5798 DEB

Satellite information

Favourite Embed

Satellite Type and Status

DEBRISIN ORBIT

Key statistics

Satellite OPS 5798 DEB at a glance.

Uptime

22249

Days in orbit

Revolutions

≈ 13.8

Per day

Orbit

SSO

Sun Synchronous Orbit

Inclination

90.2

Latest

Satellite identification and parameters

Extended collection of information and parameters for OPS 5798 DEB.

Object identification

Identified? True

Debris? True

Object name: OPS 5798 DEB

International designator: 1964-063F

Object number (NORAD): 903

Object ID (CCSDS): 903

Country: UNITED STATES OF AMERICA (US)

Current information (Y/N): Y

RCS size: SMALL

Orbital parameters

Period: 104.334 minutes

Inclination: 90.215 deg

SMA: 7341.353 km

Apoapsis: 978.387 km

Periapsis: 948.05 km

RAAN: 64.3531 deg

Eccentricy: 0.00206612

Argument of periapsis: 261.3965 deg

Mean anomaly: 252.961 deg

Mean motion: 13.80188994 rev/day

Mean motion (dot): 0.00001305 rev/day2

B* drag term: 0.0012425701 1/REarth

Two-line elements (TLE)

Creation date: Sept. 3, 2025, 10:15 a.m.

Reference frame: TEME

Reference center: EARTH

Epoch: Sept. 2, 2025, 11:54 p.m. UTC

TLE line 0: 0 OPS 5798 DEB

TLE line 1: 1 00903U 64063F 25245.99629759 .00001305 00000-0 12426-2 0 9991

TLE line 2: 2 00903 90.2150 64.3531 0020661 261.3965 252.9610 13.80188994 34744

Live tracking on map

Real-time ground track for satellite OPS 5798 DEB.

In-orbit conjunctions

A list of the most updated potential collisions computed for object OPS 5798 DEB.

Target Orbit TCA Probability of collision Miss distance Type
SL-16 DEB LEO 2025-06-03 17:07:48 0.0001320471 46.0 (m) DEBRIS
PEGASUS DEB LEO 2024-09-30 03:58:48 0.0001910561 126.0 (m) DEBRIS

Associated space launch

The Transit-O series of satellites that closely followed the design of Transit 5C-1 were also called “Oscars” (Oscar is the phonetic alphabet for “O”, i. e., operational). They were also called NNS (Navy Navigation Satellite) or shortened NavSat.

OPS 5798 DEB was lifted into orbit during the mission ‘Thor DM-21 Ablestar | Transit-O 1’, on board a Thor DM-21 Ablestar space rocket.

The launch took place on Oct. 6, 1964, 5:04 p.m. from Space Launch Complex 2W.

For more information about the launch, click the button.

Launch to space Thor DM-21 Ablestar | Transit-O 1
Thor DM-21 Ablestar | Transit-O 1

Agency: N/A

Status: Launch Successful

Launch date: Oct. 6, 1964, 5:04 p.m. UTC

Rocket: Thor DM-21 Ablestar

Launch pad: Space Launch Complex 2W

Location: Vandenberg SFB, CA, USA

...

Latest news about this satellite

There are no fresh news available about this satellite. Check back as we update our databases every day.


Newsletter sign-up

Weekly statistics, charts and insights to help you stay on top of the space industry.